Mount Werner, CO

9:18 AM MST on November 21, 2017 (GMT -0700)
Mount Werner

Weather History for K3MW - November, 2012

Change the Weather History Date:

Monday, November 19, 2012

  Actual Average (KSBS) Record (KSBS)
Temperature  
Mean Temperature 32 °F -  
Max Temperature 33 °F 39 °F 60 °F (1949)
Min Temperature 30 °F 15 °F -12 °F (1969)
Degree Days  
Heating Degree Days 34    
Moisture  
Dew Point 24 °F    
Average Humidity 75    
Maximum Humidity 86    
Minimum Humidity 60    
Precipitation  
Precipitation 0.00 in - - ()
Sea Level Pressure  
Sea Level Pressure 30.19 in    
Wind  
Wind Speed 13 mph (WSW)    
Max Wind Speed 17 mph    
Max Gust Speed 25 mph    
Visibility 9 miles    
Events Snow    
Averages and records for this station are not official NWS values.
T = Trace of Precipitation, MM = Missing Value Source: NWS Daily Summary

Daily Weather History Graph

Daily Weather History Graph

Search for Another Location

Airport or City:

Trip Planner

Search our weather history database for the weather conditions in past years. The results will help you decide how hot, cold, wet, or windy it might be!

Date:

Astronomy

Nov. 19, 2012 Rise Set
Actual Time 6:58 AM MST 4:46 PM MST
Civil Twilight 6:28 AM MST 5:15 PM MST
Nautical Twilight 5:55 AM MST 5:49 PM MST
Astronomical Twilight 5:23 AM MST 6:21 PM MST
Moon 12:02 PM MST (11/19) 11:17 PM MST (11/19)
Length of Visible Light 10h 46m
Length of Day
9h 47m
Waxing Crescent, 41% of the Moon is Illuminated
Nov 19
Waxing Crescent
Nov 20
First Quarter
Nov 28
Full
Dec 6
Last Quarter
Dec 13
New

Hourly Weather History & Observations

Time (MST) Temp. Windchill Dew Point Humidity Pressure Visibility Wind Dir Wind Speed Gust Speed Precip Events Conditions
12:16 AM 30.2 °F 20.2 °F 26.6 °F 86% 30.12 in 10.0 mi West 12.7 mph 18.4 mph N/A   Overcast
12:36 AM 30.2 °F 20.8 °F 26.6 °F 86% 30.12 in 10.0 mi West 11.5 mph 17.3 mph N/A   Overcast
12:56 AM 30.2 °F 20.2 °F 26.6 °F 86% 30.11 in 10.0 mi West 12.7 mph 19.6 mph N/A   Overcast
1:16 AM 30.2 °F 20.8 °F 26.6 °F 86% 30.11 in 10.0 mi West 11.5 mph - N/A   Overcast
1:36 AM 30.2 °F 20.8 °F 26.6 °F 86% 30.11 in 4.0 mi West 11.5 mph - N/A Snow Light Snow
1:56 AM 30.2 °F 21.9 °F 26.6 °F 86% 30.12 in 3.0 mi West 9.2 mph 16.1 mph N/A Snow Light Snow
2:16 AM 30.2 °F 22.6 °F 26.6 °F 86% 30.13 in 0.2 mi WNW 8.1 mph - N/A Snow Heavy Snow
2:36 AM 30.2 °F 22.6 °F 26.6 °F 86% 30.13 in 0.2 mi WSW 8.1 mph - N/A Snow Heavy Snow
2:56 AM 30.2 °F 21.3 °F 26.6 °F 86% 30.14 in 0.8 mi SW 10.4 mph - N/A Snow Light Snow
3:16 AM 30.2 °F 20.2 °F 26.6 °F 86% 30.13 in 10.0 mi SSW 12.7 mph 18.4 mph N/A   Overcast
3:36 AM 30.2 °F 19.8 °F 26.6 °F 86% 30.14 in 10.0 mi SSW 13.8 mph 21.9 mph N/A   Overcast
3:56 AM 30.2 °F 21.3 °F 26.6 °F 86% 30.14 in 10.0 mi SSW 10.4 mph 18.4 mph N/A Snow Light Snow
4:16 AM 30.2 °F 19.8 °F 26.6 °F 86% 30.13 in 10.0 mi SSW 13.8 mph - N/A   Overcast
4:36 AM 30.2 °F 19.8 °F 26.6 °F 86% 30.14 in 10.0 mi SSW 13.8 mph 18.4 mph N/A   Overcast
5:16 AM 30.2 °F 18.9 °F 26.6 °F 86% 30.15 in 10.0 mi SW 16.1 mph 21.9 mph N/A   Overcast
5:36 AM 30.2 °F 18.9 °F 26.6 °F 86% 30.15 in 10.0 mi SW 16.1 mph 20.7 mph N/A   Overcast
5:56 AM 30.2 °F 19.8 °F 26.6 °F 86% 30.16 in 10.0 mi SW 13.8 mph 20.7 mph N/A Snow Light Snow
6:36 AM 30.2 °F 19.3 °F 26.6 °F 86% 30.17 in 10.0 mi SW 15.0 mph - N/A   Overcast
6:56 AM 30.2 °F 19.3 °F 26.6 °F 86% 30.17 in 10.0 mi SW 15.0 mph - N/A   Overcast
7:16 AM 30.2 °F 19.3 °F 24.8 °F 80% 30.17 in 10.0 mi SW 15.0 mph 20.7 mph N/A   Overcast
7:36 AM 30.2 °F 19.3 °F 24.8 °F 80% 30.18 in 10.0 mi SW 15.0 mph 23.0 mph N/A   Overcast
7:56 AM 30.2 °F 18.5 °F 24.8 °F 80% 30.18 in 10.0 mi SW 17.3 mph 23.0 mph N/A   Overcast
8:16 AM 30.2 °F 18.5 °F 24.8 °F 80% 30.19 in 10.0 mi SW 17.3 mph - N/A   Overcast
8:36 AM 30.2 °F 18.9 °F 24.8 °F 80% 30.19 in 10.0 mi SW 16.1 mph 19.6 mph N/A   Overcast
8:56 AM 30.2 °F 19.8 °F 24.8 °F 80% 30.20 in 10.0 mi WSW 13.8 mph - N/A   Overcast
9:16 AM 30.2 °F 19.8 °F 24.8 °F 80% 30.20 in 10.0 mi WSW 13.8 mph 20.7 mph N/A   Overcast
9:36 AM 30.2 °F 19.3 °F 26.6 °F 86% 30.21 in 10.0 mi WSW 15.0 mph 20.7 mph N/A   Overcast
9:56 AM 30.2 °F 18.9 °F 26.6 °F 86% 30.21 in 10.0 mi WSW 16.1 mph - N/A   Overcast
10:16 AM 32.0 °F 21.6 °F 26.6 °F 80% 30.22 in 10.0 mi WSW 15.0 mph 20.7 mph N/A   Overcast
10:36 AM 32.0 °F 22.1 °F 26.6 °F 80% 30.22 in 10.0 mi WSW 13.8 mph 20.7 mph N/A   Overcast
10:56 AM 32.0 °F 23.0 °F 26.6 °F 80% 30.23 in 10.0 mi WSW 11.5 mph 19.6 mph N/A   Overcast
11:16 AM 32.0 °F 23.6 °F 24.8 °F 75% 30.22 in 10.0 mi WSW 10.4 mph - N/A   Overcast
11:36 AM 32.0 °F 23.6 °F 26.6 °F 80% 30.22 in 10.0 mi West 10.4 mph 17.3 mph N/A   Overcast
11:56 AM 32.0 °F 24.8 °F 24.8 °F 75% 30.21 in 10.0 mi WSW 8.1 mph 19.6 mph N/A   Overcast
12:16 PM 32.0 °F 24.2 °F 26.6 °F 80% 30.20 in 10.0 mi WSW 9.2 mph 18.4 mph N/A   Overcast
12:36 PM 32.0 °F 23.0 °F 26.6 °F 80% 30.20 in 10.0 mi WSW 11.5 mph - N/A   Mostly Cloudy
12:56 PM 33.8 °F 26.4 °F 26.6 °F 75% 30.20 in 10.0 mi WSW 9.2 mph - N/A   Mostly Cloudy
1:16 PM 33.8 °F 25.3 °F 24.8 °F 70% 30.20 in 10.0 mi WSW 11.5 mph - N/A   Mostly Cloudy
1:36 PM 33.8 °F 27.0 °F 26.6 °F 75% 30.20 in 10.0 mi West 8.1 mph - N/A   Overcast
1:56 PM 33.8 °F 25.3 °F 26.6 °F 75% 30.20 in 10.0 mi West 11.5 mph - N/A   Overcast
2:16 PM 32.0 °F 23.0 °F 24.8 °F 75% 30.19 in 10.0 mi West 11.5 mph - N/A   Scattered Clouds
2:36 PM 33.8 °F 25.8 °F 23.0 °F 65% 30.19 in 10.0 mi West 10.4 mph - N/A   Scattered Clouds
2:56 PM 33.8 °F 25.8 °F 23.0 °F 65% 30.19 in 10.0 mi West 10.4 mph - N/A   Scattered Clouds
3:16 PM 33.8 °F 27.0 °F 23.0 °F 65% 30.20 in 10.0 mi West 8.1 mph - N/A   Mostly Cloudy
3:36 PM 33.8 °F 27.0 °F 23.0 °F 65% 30.20 in 10.0 mi West 8.1 mph 16.1 mph N/A   Overcast
3:56 PM 33.8 °F 24.8 °F 23.0 °F 65% 30.20 in 10.0 mi West 12.7 mph 19.6 mph N/A   Mostly Cloudy
4:16 PM 33.8 °F 25.3 °F 21.2 °F 60% 30.20 in 10.0 mi West 11.5 mph - N/A   Scattered Clouds
4:36 PM 33.8 °F 24.3 °F 21.2 °F 60% 30.20 in 10.0 mi West 13.8 mph 20.7 mph N/A   Clear
4:56 PM 32.0 °F 22.1 °F 21.2 °F 64% 30.21 in 10.0 mi West 13.8 mph 19.6 mph N/A   Clear
5:16 PM 32.0 °F 21.6 °F 21.2 °F 64% 30.21 in 10.0 mi West 15.0 mph 20.7 mph N/A   Clear
5:36 PM 32.0 °F 22.5 °F 21.2 °F 64% 30.22 in 10.0 mi West 12.7 mph 20.7 mph N/A   Clear
5:56 PM 32.0 °F 22.5 °F 21.2 °F 64% 30.22 in 10.0 mi WSW 12.7 mph 18.4 mph N/A   Scattered Clouds
6:16 PM 32.0 °F 22.1 °F 21.2 °F 64% 30.22 in 10.0 mi WSW 13.8 mph 21.9 mph N/A   Clear
6:36 PM 32.0 °F 20.8 °F 21.2 °F 64% 30.22 in 10.0 mi WSW 17.3 mph 23.0 mph N/A   Clear
6:56 PM 32.0 °F 23.6 °F 21.2 °F 64% 30.23 in 10.0 mi WSW 10.4 mph - N/A   Clear
7:16 PM 32.0 °F 22.5 °F 21.2 °F 64% 30.23 in 10.0 mi WSW 12.7 mph - N/A   Clear
7:36 PM 32.0 °F 23.0 °F 21.2 °F 64% 30.23 in 10.0 mi West 11.5 mph 20.7 mph N/A   Clear
7:56 PM 32.0 °F 21.6 °F 21.2 °F 64% 30.23 in 10.0 mi WSW 15.0 mph - N/A   Clear
8:16 PM 32.0 °F 22.5 °F 21.2 °F 64% 30.23 in 10.0 mi West 12.7 mph - N/A   Clear
8:36 PM 32.0 °F 23.0 °F 23.0 °F 69% 30.23 in 10.0 mi West 11.5 mph - N/A   Clear
8:56 PM 32.0 °F 21.2 °F 23.0 °F 69% 30.23 in 10.0 mi WSW 16.1 mph 20.7 mph N/A   Clear
9:16 PM 32.0 °F 22.1 °F 21.2 °F 64% 30.24 in 10.0 mi West 13.8 mph 25.3 mph N/A   Clear
9:36 PM 32.0 °F 22.1 °F 21.2 °F 64% 30.24 in 10.0 mi West 13.8 mph 20.7 mph N/A   Clear
9:56 PM 32.0 °F 22.5 °F 23.0 °F 69% 30.24 in 10.0 mi West 12.7 mph - N/A   Clear
10:16 PM 32.0 °F 22.1 °F 23.0 °F 69% 30.24 in 10.0 mi West 13.8 mph - N/A   Clear
10:36 PM 32.0 °F 21.6 °F 23.0 °F 69% 30.24 in 10.0 mi West 15.0 mph 20.7 mph N/A   Clear
10:56 PM 32.0 °F 21.6 °F 23.0 °F 69% 30.24 in 10.0 mi West 15.0 mph - N/A   Clear
11:16 PM 32.0 °F 22.1 °F 23.0 °F 69% 30.24 in 10.0 mi West 13.8 mph - N/A   Clear
11:36 PM 32.0 °F 22.1 °F 23.0 °F 69% 30.24 in 10.0 mi West 13.8 mph 19.6 mph N/A   Clear
11:56 PM 32.0 °F 21.2 °F 23.0 °F 69% 30.23 in 10.0 mi West 16.1 mph 21.9 mph N/A   Clear